Regional Weather Roundup
Issued by NWS

Home | Current Version | Previous Version | Graphics & Text | Print | Product List | Glossary On
Versions: 1 2 3 4 5 6 7 8 9 10 11 12 13 14 15 16 17 18 19 20 21 22 23 24 25 26 27 28 29 30 31 32 33 34 35 36 37 38 39 40 41 42 43 44 45 46 47 48 49 50
000
ASUS43 KMKX 181600
RWRWI

WISCONSIN REGIONAL WEATHER ROUNDUP
NATIONAL WEATHER SERVICE MILWAUKEE/SULLIVAN WI
1000 AM CST SAT NOV 18 2017

NOTE: "FAIR" INDICATES FEW OR NO CLOUDS BELOW 12,000 FEET WITH NO
SIGNIFICANT WEATHER AND/OR OBSTRUCTIONS TO VISIBILITY.

WIZ001-002-006>008-014>016-023>028-181700-
NORTHWEST WISCONSIN

CITY           SKY/WX    TMP DP  RH WIND       PRES   REMARKS
SUPERIOR ARPT  SUNNY     29  22  75 NW8       29.80S WCI  21
ASHLAND        CLOUDY    32  28  85 NW10      29.75S WCI  24
HAYWARD        CLOUDY    31  26  82 N6        29.74S WCI  25
SIREN          MOSUNNY   29  23  78 NW12      29.79S WCI  19
CUMBERLAND     CLOUDY    30  28  93 NW12      29.74S WCI  21
RICE LAKE      CLOUDY    32  30  90 NW6       29.76S WCI  27
CHETEK         CLOUDY    33  30  88 N6        29.74S WCI  28
LADYSMITH      CLOUDY    35  32  88 N12       29.73R WCI  26
EAU CLAIRE     NOT AVBL
MENOMONIE      CLOUDY    36  31  83 NW12      29.74S WCI  28
NEW RICHMOND   CLOUDY    31  28  90 NW14      29.79R WCI  20
OSCEOLA        PTSUNNY   31  29  94 NW10      29.83R WCI  22
$$

WIZ003>005-009-010-017-018-181700-
NORTH CENTRAL WISCONSIN

CITY           SKY/WX    TMP DP  RH WIND       PRES   REMARKS
MANITOWISH WTR CLOUDY    32  32 100 NW5       29.66S WCI  27
ARBOR VITAE    CLOUDY    34  32  93 N7        29.65S WCI  28
WOODRUFF       CLOUDY    34  32  93 N7        29.65S WCI  28
RHINELANDER    CLOUDY    33  31  92 VRB7      29.65R WCI  27
EAGLE RIVER    CLOUDY    32  32  99 N8        29.64R WCI  25
LAND O LAKES   CLOUDY    32  31  96 N10       29.66S WCI  24
PHILLIPS       CLOUDY    32  31  96 N7G16     29.68R WCI  26
TOMAHAWK       CLOUDY    32  31  94 N7        29.66S WCI  26
MEDFORD        CLOUDY    33  32  96 N14       29.65S FOG     WCI  23
MERRILL        CLOUDY    34  32  90 N8        29.66R WCI  28
$$

WIZ029-030-035-036-043>047-181700-
CENTRAL WISCONSIN

CITY           SKY/WX    TMP DP  RH WIND       PRES   REMARKS
WAUSAU         CLOUDY    35  31  85 N10       29.62S WCI  27
MOSINEE        CLOUDY    34  34 100 N10G18    29.64S WCI  26
MARSHFIELD     CLOUDY    35  31  85 N10       29.63F WCI  27
STEVENS POINT  CLOUDY    34  33  97 N8        29.64S WCI  27
WAUPACA        CLOUDY    39  35  86 NW9       29.62S WCI  33
WAUTOMA        CLOUDY    37  34  89 N9        29.62F WCI  30
WISC RAPIDS    CLOUDY    37  33  85 N13G18    29.64F WCI  29
CAMP DOUGLAS   NOT AVBL
$$

WIZ011>013-019>022-031-037>040-048>050-181700-
NORTHEAST WISCONSIN

CITY           SKY/WX    TMP DP  RH WIND       PRES   REMARKS
ANTIGO         CLOUDY    33  31  94 N16       29.62S WCI  22
SHAWANO        CLOUDY    38  35  87 N6        29.62S WCI  34
OCONTO         CLOUDY    37  34  88 N8        29.60F WCI  31
STURGEON BAY   CLOUDY    38  36  92 N16G25    29.58F WCI  29
GREEN BAY      CLOUDY    39  36  89 N12G22    29.58F WCI  32
MANITOWOC      CLOUDY    38  35  89 N15G22    29.59R WCI  29
APPLETON       CLOUDY    36  36 100 N13G20    29.57F WCI  27
CLINTONVILLE   CLOUDY    37  34  87 N7        29.62S WCI  32
OSHKOSH        CLOUDY    37  35  92 N9        29.61R WCI  30
$$

WIZ032>034-041-042-053>061-181700-
SOUTHWEST WISCONSIN

CITY           SKY/WX    TMP DP  RH WIND       PRES   REMARKS
LA CROSSE      CLOUDY    38  33  82 N20       29.69S WCI  28
SPARTA         CLOUDY    34  33  96 N13       29.67F WCI  25
VIROQUA        CLOUDY    34  34 100 N13G18    29.64R WCI  25
BOSCOBEL       CLOUDY    39  35  86 N12       29.65R WCI  32
PRAIRIE DU CHI CLOUDY    38  34  88 N12G18    29.64S WCI  30
PLATTEVILLE    CLOUDY    37  37 100 N20       29.60S WCI  26
$$

WIZ056-057-062-063-064-067-068-181700-
SOUTH CENTRAL WISCONSIN

CITY           SKY/WX    TMP DP  RH WIND       PRES   REMARKS
REEDSBURG      CLOUDY    36  36 100 N13G18    29.62S WCI  27
BARABOO/DELLS  CLOUDY    36  34  94 N7        29.61S FOG     WCI  30
LONE ROCK      NOT AVBL
MINERAL POINT  CLOUDY    36  36 100 N12G17    29.60R WCI  27
MADISON        CLOUDY    35  34  96 N16G22    29.59F WCI  25
MIDDLETON      CLOUDY    37  36  96 N14G20    29.60S WCI  28
WATERTOWN      CLOUDY    33  33 100 N7        29.58S FOG     WCI  26
MONROE         LGT SNOW  32  32 100 N15G21    29.56F WCI  22
JANESVILLE     LGT SNOW  36  36 100 N12G17    29.56F WCI  27
$$

WIZ051-052-058>065-066-070>072-181700-
SOUTHEAST WISCONSIN

CITY           SKY/WX    TMP DP  RH WIND       PRES   REMARKS
MILWAUKEE      LGT SNOW  36  34  92 N10       29.54F FOG     WCI  28
WAUKESHA       LGT SNOW  32  30  93 NW7       29.57F VSB 1   WCI  26
MILWAUKEE/TIMM LGT SNOW  34  30  86 NW7       29.57S WCI  28
RACINE         LGT RAIN  36  34  92 N16G24    29.54F FOG     WCI  26
BURLINGTON     LGT SNOW  35  35 100 N8        29.54F WCI  28
KENOSHA        LGT SNOW  36  33  89 N13G21    29.51F FOG     WCI  27
FOND DU LAC    CLOUDY    37  33  85 N16G25    29.60R WCI  28
SHEBOYGAN      LGT RAIN  37  36  96 N12       29.57R WCI  29
WEST BEND      LGT RAIN  32  32 100 N8        29.57R WCI  25
JUNEAU         CLOUDY    35  33  94 N14       29.59S WCI  25
$$

LSZ147-162-181700-
LAKE SUPERIOR

STATION/POSITION TIME  TEMP    WIND        PRES    WAVE
                       AIR SEA DIR/SP/G            HT/PER
                 (UTC) (F)     (DEG/KT/KT) (MB)    (FT/S)
DEVILS ISLAND    1500   33     340/ 11/ 13 1008.0R
SAXON HARBOR     1530   36     320/ 12/ 15 1006.8R
$$

LMZ867-665-643>646-181700-
LAKE MICHIGAN

STATION/POSITION TIME  TEMP    WIND        PRES    WAVE
                       AIR SEA DIR/SP/G            HT/PER
                 (UTC) (F)     (DEG/KT/KT) (MB)    (FT/S)
N MID LAKE BUOY  1450   41 48   10/ 21/ 25 1001.3R   4/ 5
NORTHPORT PIER   1540   41     360/ 20/ 24 1002.0R
SHEBOYGAN LAKESH 1500   38     350/ 17/ 20 1001.2F
PORT WASHINGTON  1540   36     330/  6/ 10 1002.0S
MILWAUKEE LAKESH 1530   35     340/ 12/ 15   N/A
S MID LAKE BUOY  1450   45 49   10/ 19/ 23  998.5F   3/ 4
KENOSHA   LAKESH 1500   39     350/ 16/ 22 1000.0
$$

TC  - TEMPERATURE IN CELSIUS
VSB - VISIBILITY IN STATUTE MILES
WCI - WIND CHILL INDEX
HX  - HEAT INDEX





USA.gov is the U.S. government's official web portal to all federal, state and local government web resources and services.